DW8300 Weather Reports


Display with metric or nautical units.
time (UTC)temp
F
wind
direction
speed
MPH
gust
MPH
rain 1hr
in
rain 24hr
in
rain mn
in
humidity
%
barometer
mb
20260509173448 63 120 0.0 0.0 0.00 0.00 0.00 60 1011.1
20260509172948 63 119 0.0 1.0 0.00 0.00 0.00 62 1011.0
20260509172456 63 82 0.0 1.0 0.00 0.00 0.00 63 1011.0
20260509171954 62 116 0.0 0.0 0.00 0.00 0.00 65 1011.1
20260509171453 62 169 0.0 0.0 0.00 0.00 0.00 65 1011.3
20260509170947 62 169 0.0 0.0 0.00 0.00 0.00 66 1011.3
20260509170436 62 169 0.0 1.0 0.00 0.00 0.00 65 1011.3
20260509165921 62 123 0.0 0.0 0.00 0.00 0.00 64 1011.3
20260509165415 62 107 0.0 0.0 0.00 0.00 0.00 63 1011.3
20260509164858 62 101 0.0 0.0 0.00 0.00 0.00 63 1011.1
20260509164404 62 101 0.0 1.0 0.00 0.00 0.00 64 1011.0
20260509163219 62 73 0.0 0.0 0.00 0.00 0.00 61 1010.8
20260509162728 62 72 0.0 0.0 0.00 0.00 0.00 61 1010.9
20260509162228 62 73 0.0 0.0 0.00 0.00 0.00 61 1010.9
20260509161728 62 42 0.0 3.0 0.00 0.00 0.00 60 1011.0
20260509161219 62 34 0.0 1.0 0.00 0.00 0.00 63 1011.1
20260509160704 62 20 0.0 0.0 0.00 0.00 0.00 63 1011.2
20260509160208 62 17 0.0 0.0 0.00 0.00 0.00 60 1011.1
20260509155702 62 273 0.0 0.0 0.00 0.00 0.00 61 1011.1
20260509155207 62 274 0.0 2.0 0.00 0.00 0.00 61 1011.2
20260509154702 62 26 0.0 0.0 0.00 0.00 0.00 61 1011.3
20260509154203 62 29 0.0 1.0 0.00 0.00 0.00 63 1011.4
20260509153041 61 98 0.0 0.0 0.00 0.00 0.00 62 1011.3
20260509152530 61 97 0.0 0.0 0.00 0.00 0.00 66 1011.3
20260509152031 61 98 0.0 0.0 0.00 0.00 0.00 65 1011.4
20260509151533 61 98 0.0 0.0 0.00 0.00 0.00 63 1011.4
20260509145757 60 137 0.0 1.0 0.00 0.00 0.00 67 1011.6
20260509145241 60 136 0.0 0.0 0.00 0.00 0.00 66 1011.6
20260509144747 59 138 0.0 0.0 0.00 0.00 0.00 66 1011.7
20260509144229 59 130 0.0 0.0 0.00 0.00 0.00 66 1011.6
20260509143738 59 86 0.0 0.0 0.00 0.00 0.00 67 1011.6
20260509143247 59 83 0.0 0.0 0.00 0.00 0.00 66 1011.7
20260509142751 58 84 0.0 1.0 0.00 0.00 0.00 68 1011.8
20260509141614 58 73 0.0 0.0 0.00 0.00 0.00 67 1011.5
20260509141119 58 72 0.0 0.0 0.00 0.00 0.00 68 1011.3
20260509140614 58 69 0.0 0.0 0.00 0.00 0.00 68 1011.1
20260509135605 58 13 0.0 1.0 0.00 0.00 0.00 66 1011.0
20260509134427 58 281 0.0 0.0 0.00 0.00 0.00 68 1011.3
20260509133257 58 280 0.0 0.0 0.00 0.00 0.00 64 1011.4
20260509132130 58 280 0.0 2.0 0.00 0.00 0.00 65 1011.5
20260509131611 58 324 0.0 0.0 0.00 0.00 0.00 67 1011.4
20260509131053 57 326 0.0 0.0 0.00 0.00 0.00 66 1011.3
20260509130537 57 329 0.0 0.0 0.00 0.00 0.00 68 1011.2
20260509130020 57 329 0.0 0.0 0.00 0.00 0.00 68 1011.4
20260509125519 56 329 0.0 0.0 0.00 0.00 0.00 68 1011.3
20260509125018 56 329 0.0 0.0 0.00 0.00 0.00 69 1011.3
20260509123845 56 329 0.0 0.0 0.00 0.00 0.00 69 1011.3
20260509123347 56 329 0.0 0.0 0.00 0.00 0.00 70 1011.4
20260509122239 56 329 0.0 0.0 0.00 0.00 0.00 68 1011.4
20260509121747 56 329 0.0 0.0 0.00 0.00 0.00 67 1011.5
20260509121246 56 329 0.0 0.0 0.00 0.00 0.00 67 1011.5
20260509120736 56 329 0.0 0.0 0.00 0.00 0.00 67 1011.5
20260509120223 56 328 0.0 0.0 0.00 0.00 0.00 63 1011.5
20260509115733 55 329 0.0 0.0 0.00 0.00 0.00 62 1011.3
20260509115216 55 328 0.0 0.0 0.00 0.00 0.00 66 1011.2
20260509114719 54 18 0.0 0.0 0.00 0.00 0.00 68 1011.0
20260509113555 54 18 0.0 0.0 0.00 0.00 0.00 71 1011.1
20260509113052 54 9 0.0 2.0 0.00 0.00 0.00 70 1011.1
20260509112533 53 346 0.0 0.0 0.00 0.00 0.00 72 1011.1
20260509112042 53 343 0.0 0.0 0.00 0.00 0.00 72 1011.2
20260509111543 53 343 0.0 0.0 0.00 0.00 0.00 73 1011.3
20260509110403 54 344 0.0 0.0 0.00 0.00 0.00 70 1011.2
20260509105847 53 351 0.0 0.0 0.00 0.00 0.00 69 1011.1
20260509104108 53 351 0.0 0.0 0.00 0.00 0.00 68 1010.9
20260509103557 53 351 0.0 0.0 0.00 0.00 0.00 69 1010.8
20260509103045 53 351 0.0 0.0 0.00 0.00 0.00 69 1010.9
20260509102539 53 351 0.0 0.0 0.00 0.00 0.00 68 1010.9
20260509102037 53 351 0.0 0.0 0.00 0.00 0.00 68 1011.0
20260509101525 53 351 0.0 0.0 0.00 0.00 0.00 68 1010.9
20260509100343 53 351 0.0 0.0 0.00 0.00 0.00 68 1010.8
20260509095852 53 351 0.0 0.0 0.00 0.00 0.00 68 1010.9
20260509095357 53 351 0.0 0.0 0.00 0.00 0.00 67 1010.9
20260509094905 53 351 0.0 0.0 0.00 0.00 0.00 67 1010.8
20260509094403 53 351 0.0 0.0 0.00 0.00 0.00 67 1010.8
20260509093853 53 351 0.0 0.0 0.00 0.00 0.00 68 1010.9
20260509091453 53 351 0.0 0.0 0.00 0.00 0.00 66 1010.9
20260509091001 53 351 0.0 0.0 0.00 0.00 0.00 66 1011.0
20260509090452 53 351 0.0 0.0 0.00 0.00 0.00 65 1010.9
20260509084715 54 351 0.0 0.0 0.00 0.00 0.00 64 1011.1
20260509084221 54 351 0.0 0.0 0.00 0.00 0.00 65 1011.0
20260509083702 54 351 0.0 0.0 0.00 0.00 0.00 64 1011.0
20260509083205 54 351 0.0 0.0 0.00 0.00 0.00 65 1011.1
20260509082648 54 351 0.0 0.0 0.00 0.00 0.00 65 1011.0
20260509082150 54 351 0.0 0.0 0.00 0.00 0.00 63 1011.1
20260509081635 54 351 0.0 0.0 0.00 0.00 0.00 63 1011.2
20260509081118 54 351 0.0 0.0 0.00 0.00 0.00 64 1011.1
20260509075953 54 351 0.0 0.0 0.00 0.00 0.00 65 1011.0
20260509074848 54 351 0.0 0.0 0.00 0.00 0.00 63 1011.0
20260509074342 54 351 0.0 0.0 0.00 0.00 0.00 64 1011.0
20260509072601 54 351 0.0 0.0 0.00 0.00 0.00 65 1011.1
20260509071414 54 331 0.0 0.0 0.00 0.00 0.00 65 1011.2
20260509070907 54 318 0.0 0.0 0.00 0.00 0.00 65 1011.1
20260509070413 54 318 0.0 0.0 0.00 0.00 0.00 64 1011.2
20260509065859 54 317 0.0 0.0 0.00 0.00 0.00 64 1011.2
20260509065342 54 317 0.0 0.0 0.00 0.00 0.00 65 1011.2
20260509064846 54 317 0.0 0.0 0.00 0.00 0.00 63 1011.2
20260509064339 54 317 0.0 0.0 0.00 0.00 0.00 62 1011.3
20260509063825 54 317 0.0 0.0 0.00 0.00 0.00 62 1011.3
20260509063329 54 317 0.0 0.0 0.00 0.00 0.00 63 1011.4
20260509062825 54 315 0.0 0.0 0.00 0.00 0.00 62 1011.4
20260509062320 54 315 0.0 0.0 0.00 0.00 0.00 62 1011.5
20260509061819 54 315 0.0 0.0 0.00 0.00 0.00 62 1011.6
20260509061306 54 314 0.0 0.0 0.00 0.00 0.00 62 1011.7
20260509060756 54 315 0.0 0.0 0.00 0.00 0.00 62 1011.6
20260509060252 54 315 0.0 0.0 0.00 0.00 0.00 61 1011.6
20260509055107 54 315 0.0 0.0 0.00 0.00 0.00 61 1011.6
20260509054558 54 315 0.0 0.0 0.00 0.00 0.00 61 1011.7
20260509054039 54 314 0.0 0.0 0.00 0.00 0.00 62 1011.7
20260509053534 54 315 0.0 0.0 0.00 0.00 0.00 62 1011.7
20260509053031 54 315 0.0 0.0 0.00 0.00 0.00 62 1011.7
20260509051248 54 311 0.0 0.0 0.00 0.00 0.00 61 1011.5
20260509050734 54 311 0.0 0.0 0.00 0.00 0.00 60 1011.6
20260509050236 54 311 0.0 0.0 0.00 0.00 0.00 60 1011.8
20260509045732 54 311 0.0 0.0 0.00 0.00 0.00 60 1011.8
20260509045242 54 310 0.0 0.0 0.00 0.00 0.00 62 1011.9
20260509044743 54 310 0.0 0.0 0.00 0.00 0.00 60 1011.9
20260509044238 54 310 0.0 0.0 0.00 0.00 0.00 60 1012.0
20260509043739 54 310 0.0 0.0 0.00 0.00 0.00 60 1011.9
20260509043237 54 310 0.0 0.0 0.00 0.00 0.00 60 1011.9
20260509042732 54 310 0.0 0.0 0.00 0.00 0.00 59 1012.0
20260509042218 54 309 0.0 0.0 0.00 0.00 0.00 59 1012.0
20260509041725 54 310 0.0 0.0 0.00 0.00 0.00 59 1011.9
20260509041220 54 310 0.0 0.0 0.00 0.00 0.00 58 1011.9
20260509040728 55 310 0.0 0.0 0.00 0.00 0.00 57 1011.9
20260509040238 55 310 0.0 0.0 0.00 0.00 0.00 57 1012.0
20260509035738 55 310 0.0 0.0 0.00 0.00 0.00 56 1012.0
20260509035227 55 310 0.0 0.0 0.00 0.00 0.00 57 1012.0
20260509034106 56 310 0.0 0.0 0.00 0.00 0.00 56 1012.0
20260509033557 56 309 0.0 0.0 0.00 0.00 0.00 56 1012.0
20260509033048 56 310 0.0 0.0 0.00 0.00 0.00 54 1012.0
20260509031317 56 306 0.0 0.0 0.00 0.00 0.00 56 1011.9
20260509030823 55 306 0.0 0.0 0.00 0.00 0.00 57 1011.9
20260509025705 55 302 0.0 0.0 0.00 0.00 0.00 60 1012.2
20260509025211 56 303 0.0 0.0 0.00 0.00 0.00 60 1012.2
20260509024713 56 302 0.0 0.0 0.00 0.00 0.00 60 1012.2
20260509024157 56 302 0.0 0.0 0.00 0.00 0.00 59 1012.3
20260509023704 56 302 0.0 0.0 0.00 0.00 0.00 60 1012.4
20260509023151 57 303 0.0 0.0 0.00 0.00 0.00 58 1012.3
20260509022652 57 302 0.0 1.0 0.00 0.00 0.00 57 1012.4
20260509022159 58 303 0.0 0.0 0.00 0.00 0.00 53 1012.4
20260509021702 58 310 0.0 0.0 0.00 0.00 0.00 52 1012.3
20260509021212 58 310 0.0 0.0 0.00 0.00 0.00 52 1012.3
20260509020654 58 305 0.0 0.0 0.00 0.00 0.00 53 1012.3
20260509020138 58 310 0.0 0.0 0.00 0.00 0.00 52 1012.2
20260509015013 58 309 0.0 0.0 0.00 0.00 0.00 53 1012.2
20260509013847 59 309 0.0 0.0 0.00 0.00 0.00 52 1012.2
20260509013346 59 309 0.0 0.0 0.00 0.00 0.00 52 1012.2
20260509012845 59 309 0.0 0.0 0.00 0.00 0.00 51 1012.2
20260509012349 59 309 0.0 0.0 0.00 0.00 0.00 54 1012.3
20260509011837 59 309 0.0 0.0 0.00 0.00 0.00 53 1012.2
20260509011346 60 309 0.0 0.0 0.00 0.00 0.00 53 1012.2
20260509010854 60 309 0.0 0.0 0.00 0.00 0.00 52 1012.1
20260509010357 60 309 0.0 0.0 0.00 0.00 0.00 51 1012.0
20260509005222 60 309 0.0 0.0 0.00 0.00 0.00 51 1012.0
20260509004703 60 309 0.0 0.0 0.00 0.00 0.00 50 1012.1
20260509004146 61 309 0.0 0.0 0.00 0.00 0.00 51 1012.1
20260509003631 61 309 0.0 1.0 0.00 0.00 0.00 52 1012.0
20260509003125 61 274 0.0 0.0 0.00 0.00 0.00 52 1012.0
20260509002607 61 274 0.0 0.0 0.00 0.00 0.00 51 1012.0
20260509001447 62 274 0.0 0.0 0.00 0.00 0.00 51 1012.0
20260509000307 62 274 0.0 0.0 0.00 0.00 0.00 46 1011.8
20260508235136 63 274 0.0 0.0 0.00 0.00 0.00 46 1011.7
20260508234631 64 274 0.0 0.0 0.00 0.00 0.00 45 1011.7
20260508234116 64 274 0.0 0.0 0.00 0.00 0.00 44 1011.6
20260508233616 64 274 0.0 0.0 0.00 0.00 0.00 45 1011.7
20260508233113 64 274 0.0 0.0 0.00 0.00 0.00 45 1011.6
20260508232553 65 274 0.0 0.0 0.00 0.00 0.00 45 1011.5
20260508230747 65 276 0.0 0.0 0.00 0.00 0.00 41 1011.3
20260508225640 65 272 0.0 0.0 0.00 0.00 0.00 40 1011.3
20260508225137 65 271 0.0 5.0 0.00 0.00 0.00 41 1011.4
20260508224631 65 271 0.0 5.0 0.00 0.00 0.00 40 1011.4
20260508224115 65 270 0.0 1.0 0.00 0.00 0.00 40 1011.4
20260508223611 66 254 0.0 1.0 0.00 0.00 0.00 40 1011.4
20260508223104 66 252 0.0 5.0 0.00 0.00 0.00 39 1011.4
20260508222548 66 277 0.0 1.0 0.00 0.00 0.00 40 1011.4
20260508222048 65 278 1.0 7.0 0.00 0.00 0.00 41 1011.3
20260508221543 65 259 0.0 8.0 0.00 0.00 0.00 39 1011.3
20260508221024 65 269 0.0 8.0 0.00 0.00 0.00 39 1011.3
20260508220519 65 271 0.0 8.0 0.00 0.00 0.00 40 1011.3
20260508220006 65 267 0.0 8.0 0.00 0.00 0.00 38 1011.4
20260508215508 65 266 0.0 5.0 0.00 0.00 0.00 37 1011.4
20260508215004 66 267 1.0 8.0 0.00 0.00 0.00 37 1011.4
20260508213853 66 261 1.0 9.0 0.00 0.00 0.00 37 1011.4
20260508212724 66 273 2.0 10.0 0.00 0.00 0.00 36 1011.6
20260508212209 66 249 2.0 11.0 0.00 0.00 0.00 36 1011.5
20260508211715 66 289 1.0 11.0 0.00 0.00 0.00 35 1011.6
20260508211208 67 255 2.0 11.0 0.00 0.00 0.00 35 1011.5
20260508210650 67 265 3.0 11.0 0.00 0.00 0.00 36 1011.4
20260508210153 67 234 2.0 10.0 0.00 0.00 0.00 35 1011.3
20260508205645 67 254 2.0 10.0 0.00 0.00 0.00 35 1011.4
20260508204532 67 296 2.0 12.0 0.00 0.00 0.00 35 1011.5
20260508204034 67 257 2.0 12.0 0.00 0.00 0.00 36 1011.4
20260508203518 68 254 3.0 12.0 0.00 0.00 0.00 33 1011.5
20260508201806 70 241 3.0 10.0 0.00 0.00 0.00 31 1011.6
20260508201250 70 234 3.0 10.0 0.00 0.00 0.00 32 1011.6
20260508200747 69 220 3.0 10.0 0.00 0.00 0.00 34 1011.7
20260508200257 69 202 4.0 14.0 0.00 0.00 0.00 31 1011.6
20260508195119 68 230 4.0 14.0 0.00 0.00 0.00 36 1011.7
20260508194600 68 230 3.0 11.0 0.00 0.00 0.00 34 1011.8
20260508194050 67 246 3.0 9.0 0.00 0.00 0.00 34 1011.7
20260508193557 68 207 2.0 10.0 0.00 0.00 0.00 34 1011.8
20260508193057 68 216 1.0 10.0 0.00 0.00 0.00 36 1011.9
20260508191936 67 249 3.0 12.0 0.00 0.00 0.00 35 1012.1
20260508191425 67 225 2.0 12.0 0.00 0.00 0.00 33 1012.3
20260508190920 67 229 3.0 11.0 0.00 0.00 0.00 34 1012.3
20260508190412 67 248 4.0 11.0 0.00 0.00 0.00 33 1012.4
20260508185914 67 221 4.0 11.0 0.00 0.00 0.00 32 1012.5
20260508185354 68 256 3.0 12.0 0.00 0.00 0.00 35 1012.5
20260508184852 67 217 4.0 12.0 0.00 0.00 0.00 38 1012.6
20260508184358 67 232 4.0 17.0 0.00 0.00 0.00 32 1012.7
20260508183844 67 239 3.0 17.0 0.00 0.00 0.00 35 1012.7
20260508182724 67 239 4.0 17.0 0.00 0.00 0.00 35 1012.8
20260508182228 67 227 3.0 15.0 0.00 0.00 0.00 35 1012.8
20260508181734 67 227 3.0 15.0 0.00 0.00 0.00 36 1012.8
20260508181242 67 262 4.0 15.0 0.00 0.00 0.00 39 1012.8
20260508180749 66 216 4.0 15.0 0.00 0.00 0.00 36 1013.0
20260508180252 66 217 4.0 14.0 0.00 0.00 0.00 37 1013.1
20260508175801 65 247 3.0 14.0 0.00 0.00 0.00 38 1013.3
20260508175256 65 244 3.0 12.0 0.00 0.00 0.00 35 1013.3
20260508174802 65 247 3.0 12.0 0.00 0.00 0.00 36 1013.3
20260508174243 65 217 4.0 12.0 0.00 0.00 0.00 34 1013.3